Coolidge Muni, Coolidge, AZ

2:11 AM MST on December 07, 2019 (GMT -0700)
Coolidge Muni, Coolidge

Weather History for KP08 - September, 2019

Change the Weather History Date:

Wednesday, September 4, 2019

  Actual Average (WUND) Record (WUND)
Temperature  
Mean Temperature 94 °F -  
Max Temperature 107 °F - - (-1)
Min Temperature 80 °F - - (-1)
Cooling Degree Days 28    
Growing Degree Days 44 (Base 50)    
Moisture  
Dew Point 57 °F    
Average Humidity 32    
Maximum Humidity 55    
Minimum Humidity 10    
Precipitation  
Precipitation 0.00 in - - ()
Sea Level Pressure  
Sea Level Pressure 29.85 in    
Wind  
Wind Speed 7 mph ()    
Max Wind Speed 18 mph    
Max Gust Speed 26 mph    
Visibility 10.0 miles    
Events      
Averages and records for this station are not official NWS values.
T = Trace of Precipitation, MM = Missing Value Source: Averaged Metar Reports

Daily Weather History Graph

Daily Weather History Graph

Search for Another Location

Airport or City:

Astronomy

Sep. 04, 2019 Rise Set
Actual Time 6:02 AM MST 6:46 PM MST
Civil Twilight 5:37 AM MST 7:11 PM MST
Nautical Twilight 5:07 AM MST 7:41 PM MST
Astronomical Twilight 4:37 AM MST 8:11 PM MST
Moon 11:48 AM MST (9/4) 10:43 PM MST (9/4)
Length of Visible Light 13h 34m
Length of Day
12h 44m
Waxing Crescent, 36% of the Moon is Illuminated
Sep 4
Waxing Crescent
Sep 5
First Quarter
Sep 13
Full
Sep 21
Last Quarter
Sep 28
New

Hourly Weather History & Observations

Time (MST) Temp. Heat Index Dew Point Humidity Pressure Visibility Wind Dir Wind Speed Gust Speed Precip Events Conditions
12:15 AM 87.8 °F 87.1 °F 59.0 °F 38% 29.83 in 10.0 mi SSE 6.9 mph - N/A   Clear
12:35 AM 87.8 °F 87.1 °F 59.0 °F 38% 29.84 in 10.0 mi SE 3.5 mph - N/A   Clear
12:55 AM 86.0 °F 86.1 °F 60.8 °F 43% 29.84 in 10.0 mi SE 4.6 mph - N/A   Clear
1:15 AM 86.0 °F 86.1 °F 60.8 °F 43% 29.84 in 10.0 mi SE 5.8 mph - N/A   Clear
1:35 AM 84.2 °F 85.6 °F 64.4 °F 51% 29.84 in 10.0 mi SSE 4.6 mph - N/A   Clear
1:55 AM 84.2 °F 86.6 °F 66.2 °F 55% 29.84 in 10.0 mi SSE 4.6 mph - N/A   Clear
2:15 AM 86.0 °F 86.6 °F 62.6 °F 45% 29.84 in 10.0 mi SE 5.8 mph - N/A   Clear
2:35 AM 84.2 °F 85.6 °F 64.4 °F 51% 29.84 in 10.0 mi ESE 8.1 mph - N/A   Clear
2:55 AM 84.2 °F 85.6 °F 64.4 °F 51% 29.84 in 10.0 mi ESE 8.1 mph - N/A   Clear
3:15 AM 84.2 °F 85.0 °F 62.6 °F 48% 29.84 in 10.0 mi SE 9.2 mph - N/A   Clear
3:35 AM 84.2 °F 85.6 °F 64.4 °F 51% 29.84 in 10.0 mi ESE 5.8 mph - N/A   Clear
3:55 AM 84.2 °F 85.6 °F 64.4 °F 51% 29.84 in 10.0 mi ESE 5.8 mph - N/A   Clear
4:15 AM 82.4 °F 83.9 °F 64.4 °F 54% 29.84 in 10.0 mi ESE 8.1 mph - N/A   Clear
4:35 AM 82.4 °F 83.9 °F 64.4 °F 54% 29.85 in 10.0 mi ESE 8.1 mph - N/A   Clear
4:55 AM 82.4 °F 83.4 °F 62.6 °F 51% 29.85 in 10.0 mi ESE 9.2 mph - N/A   Clear
5:15 AM 82.4 °F 83.4 °F 62.6 °F 51% 29.86 in 10.0 mi ESE 9.2 mph - N/A   Clear
5:35 AM 82.4 °F 83.4 °F 62.6 °F 51% 29.86 in 10.0 mi ESE 8.1 mph - N/A   Clear
5:55 AM 82.4 °F 83.4 °F 62.6 °F 51% 29.87 in 10.0 mi ESE 6.9 mph - N/A   Clear
6:15 AM 80.6 °F 81.8 °F 62.6 °F 54% 29.87 in 10.0 mi ESE 6.9 mph - N/A   Clear
6:35 AM 80.6 °F 81.8 °F 62.6 °F 54% 29.88 in 10.0 mi ESE 6.9 mph - N/A   Clear
6:55 AM 82.4 °F 82.9 °F 60.8 °F 48% 29.88 in 10.0 mi East 8.1 mph - N/A   Clear
7:15 AM 86.0 °F 86.6 °F 62.6 °F 45% 29.89 in 10.0 mi ESE 8.1 mph - N/A   Clear
7:35 AM 86.0 °F 86.1 °F 60.8 °F 43% 29.89 in 10.0 mi ESE 6.9 mph - N/A   Clear
7:55 AM 89.6 °F 89.5 °F 60.8 °F 38% 29.89 in 10.0 mi ESE 6.9 mph - N/A   Clear
8:15 AM 89.6 °F 89.5 °F 60.8 °F 38% 29.90 in 10.0 mi Calm Calm - N/A   Clear
8:35 AM 91.4 °F 92.1 °F 62.6 °F 38% 29.90 in 10.0 mi WSW 4.6 mph - N/A   Clear
8:55 AM 91.4 °F 92.1 °F 62.6 °F 38% 29.91 in 10.0 mi Calm Calm - N/A   Clear
9:15 AM 93.2 °F 94.1 °F 62.6 °F 36% 29.91 in 10.0 mi WSW 4.6 mph - N/A   Clear
9:35 AM 95.0 °F 95.2 °F 60.8 °F 32% 29.91 in 10.0 mi Calm Calm - N/A   Clear
9:55 AM 95.0 °F 96.0 °F 62.6 °F 34% 29.91 in 10.0 mi Calm Calm 11.5 mph N/A   Clear
10:15 AM 96.8 °F 98.0 °F 62.6 °F 32% 29.91 in 10.0 mi SW 8.1 mph - N/A   Clear
10:35 AM 96.8 °F 98.0 °F 62.6 °F 32% 29.91 in 10.0 mi SW 9.2 mph - N/A   Clear
10:55 AM 98.6 °F 99.4 °F 60.8 °F 29% 29.91 in 10.0 mi SW 6.9 mph - N/A   Clear
11:15 AM 98.6 °F 99.4 °F 60.8 °F 29% 29.90 in 10.0 mi SW 8.1 mph - N/A   Clear
11:35 AM 100.4 °F 100.2 °F 59.0 °F 25% 29.89 in 10.0 mi Variable 4.6 mph - N/A   Clear
11:55 AM 102.2 °F 103.6 °F 60.8 °F 26% 29.88 in 10.0 mi Variable 5.8 mph - N/A   Clear
12:15 PM 102.2 °F 103.6 °F 60.8 °F 26% 29.88 in 10.0 mi West 8.1 mph 13.8 mph N/A   Clear
12:35 PM 104.0 °F 104.6 °F 59.0 °F 23% 29.87 in 10.0 mi Variable 5.8 mph 13.8 mph N/A   Clear
12:55 PM 104.0 °F 102.9 °F 55.4 °F 20% 29.86 in 10.0 mi Variable 4.6 mph 15.0 mph N/A   Clear
1:15 PM 104.0 °F 102.3 °F 53.6 °F 19% 29.85 in 10.0 mi Calm Calm 11.5 mph N/A   Clear
1:35 PM 105.8 °F - 51.8 °F 17% 29.84 in 10.0 mi SW 5.8 mph 15.0 mph N/A   Clear
1:55 PM 105.8 °F - 51.8 °F 17% 29.83 in 10.0 mi West 12.7 mph - N/A   Clear
2:15 PM 107.6 °F - 50.0 °F 15% 29.82 in 10.0 mi SW 8.1 mph 17.3 mph N/A   Clear
2:35 PM 105.8 °F - 50.0 °F 15% 29.81 in 10.0 mi WNW 8.1 mph 15.0 mph N/A   Clear
2:55 PM 107.6 °F - 48.2 °F 14% 29.80 in 10.0 mi WSW 9.2 mph 16.1 mph N/A   Clear
3:15 PM 104.0 °F - 50.0 °F 16% 29.80 in 10.0 mi Variable 5.8 mph 12.7 mph N/A   Light Drizzle
3:35 PM 107.6 °F - 48.2 °F 14% 29.79 in 10.0 mi West 8.1 mph - N/A   Clear
3:55 PM 105.8 °F - 48.2 °F 14% 29.78 in 10.0 mi WNW 9.2 mph 15.0 mph N/A   Clear
4:15 PM 107.6 °F - 46.4 °F 13% 29.78 in 10.0 mi West 8.1 mph - N/A   Clear
4:35 PM 107.6 °F - 48.2 °F 14% 29.77 in 10.0 mi WNW 6.9 mph - N/A   Clear
4:55 PM 107.6 °F - 46.4 °F 13% 29.77 in 10.0 mi WNW 10.4 mph - N/A   Clear
5:15 PM 105.8 °F - 46.4 °F 14% 29.77 in 10.0 mi WNW 4.6 mph - N/A   Clear
5:35 PM 105.8 °F - 46.4 °F 14% 29.76 in 10.0 mi West 8.1 mph - N/A   Clear
5:55 PM 105.8 °F - 44.6 °F 13% 29.77 in 10.0 mi Variable 3.5 mph - N/A   Clear
6:15 PM 105.8 °F - 39.2 °F 10% 29.78 in 10.0 mi SE 16.1 mph - N/A   Clear
6:35 PM 104.0 °F - 39.2 °F 11% 29.79 in 10.0 mi SE 8.1 mph - N/A   Clear
6:55 PM 104.0 °F - 39.2 °F 11% 29.80 in 10.0 mi SE 10.4 mph - N/A   Clear
7:15 PM 102.2 °F - 39.2 °F 11% 29.81 in 10.0 mi SE 10.4 mph - N/A   Clear
7:35 PM 100.4 °F - 41.0 °F 13% 29.82 in 10.0 mi SE 9.2 mph - N/A   Clear
7:55 PM 98.6 °F - 41.0 °F 14% 29.83 in 10.0 mi SE 9.2 mph - N/A   Clear
8:15 PM 98.6 °F - 41.0 °F 14% 29.83 in 10.0 mi SE 11.5 mph - N/A   Clear
8:35 PM 98.6 °F 97.2 °F 55.4 °F 24% 29.86 in 10.0 mi South 16.1 mph 25.3 mph N/A   Clear
8:55 PM 95.0 °F 95.2 °F 60.8 °F 32% 29.87 in 10.0 mi SSW 18.4 mph 25.3 mph N/A   Clear
9:15 PM 95.0 °F 95.2 °F 60.8 °F 32% 29.88 in 10.0 mi SSW 17.3 mph 26.5 mph N/A   Clear
9:35 PM 93.2 °F 93.3 °F 60.8 °F 34% 29.88 in 10.0 mi SSW 18.4 mph - N/A   Clear
9:55 PM 91.4 °F 91.4 °F 60.8 °F 36% 29.89 in 10.0 mi South 13.8 mph 21.9 mph N/A   Clear
10:15 PM 91.4 °F 91.4 °F 60.8 °F 36% 29.90 in 10.0 mi South 15.0 mph 21.9 mph N/A   Clear
10:35 PM 91.4 °F 91.4 °F 60.8 °F 36% 29.91 in 10.0 mi South 12.7 mph - N/A   Clear
10:55 PM 91.4 °F 92.1 °F 62.6 °F 38% 29.92 in 10.0 mi South 12.7 mph - N/A   Clear
11:15 PM 89.6 °F 90.1 °F 62.6 °F 40% 29.93 in 10.0 mi South 8.1 mph - N/A   Clear
11:35 PM 89.6 °F 90.1 °F 62.6 °F 40% 29.94 in 10.0 mi SE 6.9 mph - N/A   Clear
11:55 PM 89.6 °F 90.1 °F 62.6 °F 40% 29.94 in 10.0 mi SE 8.1 mph - N/A   Clear